Tacoma, WA
on Saturday, December 22, 2012

Saturday
Previous Day Next Day
Daily Summary
 ActualAverage (KSEA)Record (KSEA)
Temperature
Mean Temperature °F 40°F  
Max Temperature 46°F 45°F 57°F (2005)
Min Temperature 35°F 35°F 14°F (1983)
Degree Days
Heating Degree Days 24 25  
Month to date heating degree days 535  
Since 1 July heating degree days 1718  
Cooling Degree Days 0 0  
Month to date cooling degree days 0  
Year to date cooling degree days 189  
Moisture
Dew Point 37°F   
Average Humidity 88    
Maximum Humidity 100    
Minimum Humidity 69    
Precipitation
Precipitation 0.08 in 0.17 in 1.28 in (1964)
Month to date precipitation 3.86  
Year to date precipitation 36.00  
Snow
Snow 0.00 in in 2.20 in (1968)
Month to date snowfall  
Since 1 July snowfall  
Snow Depth in   
Wind
Wind Speed 6 mph   
Max Wind Speed 20 mph   
Max Gust Speed 31 mph   
Visibility 10 miles   
Events Rain   

Key: T is trace of precipitation, MM is missing value
Source: NWS Daily Summary
Time(PST)TemperatureDew PointHumidity Pressure Visibility Wind DirectionWind SpeedGust SpeedPrecipitationEvents Conditions
12:58 AM 37.6°F 37.4°F 99% 29.64 in 10.0 miles East 4.6 mph - N/A   Overcast
1:58 AM 37.0°F 36.9°F 99% 29.63 in 10.0 miles ESE 2.3 mph - N/A   Clear
2:58 AM 37.9°F 36.7°F 95% 29.61 in 10.0 miles NNE 1.2 mph - N/A   Scattered Clouds
3:58 AM 36.0°F 35.6°F 99% 29.57 in 10.0 miles NNW 3.5 mph - N/A   Overcast
4:58 AM 35.2°F 34.9°F 99% 29.55 in 10.0 miles Calm Calm - N/A   Overcast
5:58 AM 35.6°F 35.4°F 99% 29.54 in 10.0 miles SSW 4.6 mph - N/A   Mostly Cloudy
6:09 AM 35.6°F 35.6°F 100% 29.52 in 10.0 miles South 4.6 mph - N/A Rain Light Rain
6:58 AM 36.7°F 36.5°F 99% 29.53 in 10.0 miles East 3.5 mph - 0.00 in Rain Light Rain
7:37 AM 37.4°F 37.4°F 100% 29.50 in 10.0 miles WSW 3.5 mph - N/A   Overcast
7:46 AM 37.4°F 37.4°F 100% 29.50 in 10.0 miles SSW 3.5 mph - N/A Rain Light Rain
7:54 AM 37.4°F 37.4°F 100% 29.50 in 10.0 miles East 5.8 mph - N/A Rain Light Rain
7:58 AM 37.0°F 36.9°F 99% 29.52 in 10.0 miles East 6.9 mph - 0.01 in Rain Light Rain
8:00 AM 37.4°F 37.4°F 100% 29.50 in 10.0 miles East 5.8 mph - N/A Rain Light Rain
8:09 AM 37.4°F 37.4°F 100% 29.50 in 10.0 miles East 4.6 mph - N/A   Overcast
8:47 AM 37.4°F 37.4°F 100% 29.51 in 10.0 miles South 4.6 mph - N/A Rain Light Rain
8:58 AM 37.4°F 37.2°F 99% 29.54 in 10.0 miles SSW 5.8 mph - 0.00 in Rain Light Rain
8:59 AM 37.4°F 37.4°F 100% 29.52 in 10.0 miles SSW 4.6 mph - N/A   Overcast
9:18 AM 37.4°F 37.4°F 100% 29.52 in 10.0 miles WSW 3.5 mph - N/A Rain Light Rain
9:54 AM 37.4°F 37.4°F 100% 29.54 in 10.0 miles SSE 2.3 mph - N/A   Mostly Cloudy
9:58 AM 37.6°F 37.4°F 99% 29.56 in 10.0 miles SSE 2.3 mph - 0.01 in   Mostly Cloudy
10:58 AM 40.8°F 39.2°F 94% 29.56 in 10.0 miles Variable 2.3 mph - N/A   Overcast
11:58 AM 46.8°F 38.1°F 72% 29.56 in 10.0 miles South 13.8 mph 25.3 mph N/A   Scattered Clouds
12:58 PM 46.4°F 39.0°F 75% 29.55 in 10.0 miles South 6.9 mph - N/A   Overcast
1:33 PM 46.4°F 37.4°F 71% 29.54 in 10.0 miles South 17.3 mph 24.2 mph N/A Rain Light Rain
1:57 PM 46.4°F 37.4°F 71% 29.53 in 10.0 miles South 19.6 mph 31.1 mph N/A   Mostly Cloudy
1:58 PM 46.4°F 37.4°F 71% 29.55 in 10.0 miles South 19.6 mph 31.1 mph 0.00 in   Mostly Cloudy
2:58 PM 46.6°F 36.9°F 69% 29.58 in 10.0 miles South 15.0 mph - 0.00 in   Partly Cloudy
3:25 PM 44.6°F 37.4°F 76% 29.57 in 10.0 miles South 12.7 mph - N/A Rain Light Rain
3:33 PM 44.6°F 37.4°F 76% 29.58 in 10.0 miles South 15.0 mph - N/A   Mostly Cloudy
3:54 PM 44.6°F 35.6°F 71% 29.59 in 10.0 miles South 15.0 mph - N/A Rain Light Rain
3:58 PM 45.1°F 36.7°F 72% 29.61 in 10.0 miles South 12.7 mph 20.7 mph 0.00 in Rain Light Rain
4:13 PM 44.6°F 37.4°F 76% 29.60 in 7.0 miles SSW 19.6 mph 27.6 mph N/A Rain Light Rain
4:23 PM 42.8°F 37.4°F 81% 29.60 in 7.0 miles South 16.1 mph 28.8 mph N/A   Overcast
4:33 PM 42.8°F 39.2°F 87% 29.61 in 10.0 miles South 15.0 mph - N/A Rain Light Rain
4:38 PM 42.8°F 37.4°F 81% 29.61 in 10.0 miles SSW 13.8 mph 19.6 mph N/A Rain Light Rain
4:48 PM 42.8°F 37.4°F 81% 29.61 in 10.0 miles SSW 9.2 mph - N/A   Mostly Cloudy
4:58 PM 42.4°F 37.8°F 83% 29.64 in 10.0 miles SSW 8.1 mph - 0.05 in   Scattered Clouds
5:58 PM 39.9°F 35.6°F 85% 29.66 in 10.0 miles South 8.1 mph - N/A   Partly Cloudy
6:50 PM 42.8°F 35.6°F 76% 29.66 in 10.0 miles SSW 11.5 mph - N/A Rain Light Rain
6:58 PM 43.2°F 35.8°F 75% 29.68 in 10.0 miles SSW 10.4 mph - 0.00 in Rain Light Rain
7:25 PM 42.8°F 35.6°F 76% 29.67 in 10.0 miles South 10.4 mph - N/A   Mostly Cloudy
7:58 PM 42.6°F 35.4°F 76% 29.70 in 10.0 miles South 5.8 mph - 0.00 in   Mostly Cloudy
8:12 PM 42.8°F 35.6°F 76% 29.69 in 10.0 miles Variable 6.9 mph - N/A   Scattered Clouds
8:24 PM 42.8°F 35.6°F 76% 29.69 in 10.0 miles South 8.1 mph - N/A   Mostly Cloudy
8:45 PM 41.0°F 37.4°F 87% 29.70 in 10.0 miles South 6.9 mph - N/A   Overcast
8:58 PM 41.0°F 37.4°F 87% 29.72 in 10.0 miles SSE 4.6 mph - 0.00 in Rain Light Rain
9:29 PM 41.0°F 37.4°F 87% 29.71 in 10.0 miles South 3.5 mph - N/A   Overcast
9:58 PM 38.3°F 37.9°F 99% 29.74 in 10.0 miles South 5.8 mph - 0.01 in   Overcast
10:58 PM 39.7°F 37.2°F 91% 29.75 in 10.0 miles SE 4.6 mph - N/A   Partly Cloudy
11:58 PM 35.4°F 35.2°F 99% 29.76 in 10.0 miles South 8.1 mph - N/A   Mostly Cloudy
Moon Phase
Dec. 22 Dec. 28 Jan. 04 Jan. 11 Jan. 18
Sunrise:07:54 AM (PST) Moon Rise:12:54 PM (PST)
Sunset:04:23 PM (PST) Moon Set:02:32 AM (PST)

Copyright © 2014 The Weather Underground, Inc.